Tracking 19920 objects as of 15-Oct-2019
HD Live streaming from Space Station
objects crossing your sky now

EXPLORER 11

Track EXPLORER 11 now!
10-day predictions
EXPLORER 11 is classified as:


NORAD ID: 107
Int'l Code: 1961-013A
Perigee: 474.3 km
Apogee: 1,266.8 km
Inclination: 28.8 °
Period: 102.2 minutes
Semi major axis: 7241 km
RCS: 0.4708 m2 (medium)
Launch date: April 27, 1961
Source: United States (US)
Launch site: AIR FORCE EASTERN TEST RANGE (AFETR)
aabbcc
Your satellite tracking list
Your tracking list is empty




NASA's NSSDC Master Catalog

Two Line Element Set (TLE):
1   107U 61013A   19287.82450993  .00000307  00000-0  22326-4 0  9995
2   107  28.7875 134.2151 0547198   3.1375 357.2439 14.08831163930962
Source of the keplerian elements: AFSPC